Hourly Data Report for July 10, 2003

TORONTO CITY
ONTARIO

43°40'00.000" N
79°24'00.000" W
112.50 m
6158355
71508
XTO

Download Data

Hourly Data (July 2003)
Hourly Data Report for July 10, 2003
TIME
LST
Temp Definition
°C
Dew Point Definition
°C
Rel Hum Definition
%
Precip. Amount Definition
mm

Wind Dir Definition
10's deg

Wind Spd Definition
km/h
Visibility Definition
km
Stn Press Definition
kPa
Hmdx Definition


Wind Chill Definition


Weather Definition


00:00 20.4 13.8 66   LegendMM LegendMM LegendMM 100.11     LegendNANA
01:00 20.0 13.9 68   LegendMM LegendMM LegendMM 100.19     LegendNANA
02:00 19.4 13.4 68   LegendMM LegendMM LegendMM 100.14     LegendNANA
03:00 19.4 12.4 64   LegendMM LegendMM LegendMM 100.12     LegendNANA
04:00 18.6 11.9 65   LegendMM LegendMM LegendMM 100.10     LegendNANA
05:00 17.9 12.1 69   LegendMM LegendMM LegendMM 100.13     LegendNANA
06:00 17.9 12.6 71   LegendMM LegendMM LegendMM 100.13     LegendNANA
07:00 17.9 12.6 71   LegendMM LegendMM LegendMM 100.14     LegendNANA
08:00 18.4 13.0 71   LegendMM LegendMM LegendMM 100.13     LegendNANA
09:00 18.5 13.3 72   LegendMM LegendMM LegendMM 100.07     LegendNANA
10:00 19.3 14.0 71   LegendMM LegendMM LegendMM 99.98     LegendNANA
11:00 19.0 14.4 75   LegendMM LegendMM LegendMM 99.87     LegendNANA
12:00 18.6 14.4 77   LegendMM LegendMM LegendMM 99.78     LegendNANA
13:00 18.6 14.9 79   LegendMM LegendMM LegendMM 99.70     LegendNANA
14:00 19.0 14.1 73   LegendMM LegendMM LegendMM 99.64     LegendNANA
15:00 18.2 14.9 81   LegendMM LegendMM LegendMM 99.56     LegendNANA
16:00 17.9 16.7 93   LegendMM LegendMM LegendMM 99.44     LegendNANA
17:00 17.9 17.1 95   LegendMM LegendMM LegendMM 99.33     LegendNANA
18:00 18.4 17.8 96   LegendMM LegendMM LegendMM 99.30     LegendNANA
19:00 18.5 18.0 97   LegendMM LegendMM LegendMM 99.20     LegendNANA
20:00 18.7 18.3 98   LegendMM LegendMM LegendMM 99.19     LegendNANA
21:00 18.9 18.4 97   LegendMM LegendMM LegendMM 99.14     LegendNANA
22:00 18.8 18.3 97   LegendMM LegendMM LegendMM 99.08     LegendNANA
23:00 18.7 18.2 97   LegendMM LegendMM LegendMM 99.03     LegendNANA

Notes on Data Quality.

Legend

  • E = Estimated
  • M = Missing
  • NA = Not Available*
  • [empty] = Indicates an unobserved value
Date modified: